This demonstration page uses our WeatherBlox Daily Observations layout. Learn more.

Left ArrowRight Arrow

34.16533, -84.80231

Hourly Observations for March 8, 2020

Temp ( °F °C ) Dew Point ( °F °C ) Humidity (%) Winds ( mph kmh ) Pressure ( in mb ) Visibility ( mi km ) Precip ( " mm )
12:53 am 00:53 Clear 33 0.6 29 -1.7 85 85 Calm 30.49 1032 10 16 0.00 0.00
1:53 am 01:53 Clear 32 0 28 -2.2 85 85 Calm 30.50 1033 10 16 0.00 0.00
3:53 am 03:53 Clear 31 -0.6 27 -2.8 85 85 Calm 30.50 1033 10 16 0.00 0.00
4:53 am 04:53 Clear 35 1.7 29 -1.7 78 78 E 5 7 30.48 1032 10 16 0.00 0.00
5:53 am 05:53 Clear 33 0.6 29 -1.7 85 85 Calm 30.50 1033 10 16 0.00 0.00
6:53 am 06:53 Clear 32 0 28 -2.2 85 85 E 3 6 30.52 1034 10 16 0.00 0.00
7:53 am 07:53 Clear 31 -0.6 27 -2.8 85 85 Calm 30.55 1035 10 16 0.00 0.00
8:53 am 08:53 Sunny 34 1.1 31 -0.6 89 89 Calm 30.59 1036 10 16 0.00 0.00
9:53 am 09:53 Sunny 43 6.1 34 1.1 71 71 Calm 30.60 1036 9 14 0.00 0.00
10:53 am 10:53 Sunny 50 10 32 0 50 50 VRB 5 7 30.58 1036 10 16 0.00 0.00
11:53 am 11:53 Sunny 54 12.2 30 -1.1 40 40 VRB 6 9 30.58 1036 10 16 0.00 0.00
12:53 pm 12:53 Sunny 58 14.4 28 -2.2 32 32 ESE 8 13 30.57 1035 10 16 0.00 0.00
1:53 pm 13:53 Sunny 60 15.6 28 -2.2 30 30 S 10 17 30.56 1035 10 16 0.00 0.00
2:53 pm 14:53 Sunny 61 16.1 29 -1.7 30 30 VRB 5 7 30.53 1034 10 16 0.00 0.00
3:53 pm 15:53 Sunny 63 17.2 29 -1.7 28 28 VRB 5 7 30.50 1033 10 16 0.00 0.00
4:53 pm 16:53 Sunny 64 17.8 27 -2.8 25 25 VRB 6 9 30.48 1032 10 16 0.00 0.00
5:53 pm 17:53 Sunny 64 17.8 29 -1.7 27 27 SE 8 13 30.48 1032 10 16 0.00 0.00
6:53 pm 18:53 Sunny 62 16.7 28 -2.2 28 28 SE 8 13 30.48 1032 10 16 0.00 0.00
7:53 pm 19:53 Clear 55 12.8 29 -1.7 37 37 SE 3 6 30.48 1032 10 16 0.00 0.00
8:53 pm 20:53 Clear 47 8.3 32 0 56 56 SE 3 6 30.50 1033 10 16 0.00 0.00
9:53 pm 21:53 Clear 44 6.7 32 0 63 63 Calm 30.52 1033 10 16 0.00 0.00
10:53 pm 22:53 Clear 43 6.1 31 -0.6 63 63 Calm 30.52 1034 10 16 0.00 0.00
11:53 pm 23:53 Clear 40 4.4 32 0 73 73 ESE 3 6 30.52 1034 10 16 0.00 0.00

Powered by AerisWeather